RH
61 60 57 53 50 48 48 48 48 48 47 46 44 44 43 42 42 41 41 40 39 37 36 34 32 32 32 33 34 35 36 36 37 37 38 37 36 35 33 30 28 26 24 23 22 21 20 19 18 17 16 14 13 11 10 8 6 5 3 3 3 3 3 4 5 6 7 8 9 10 10 11 11 12 12 13 14 16 18 22 26 30 35 39 43 47
60 58 53 50 48 48 49 49 48 47 46 45 44 44 43 43 42 41 40 38 37 35 33 32 31 32 33 34 35 37 38 38 39 39 39 38 37 35 32 30 28 26 24 23 22 21 20 19 18 16 15 13 12 10 9 7 5 4 3 3 3 3 4 5 6 7 8 9 10 10 11 11 12 13 14 15 17 20 23 27 32 36 41 46 50 54
58 54 50 49 48 49 49 48 47 47 46 45 44 44 43 43 42 40 39 37 35 33 31 31 31 33 35 37 38 40 41 41 41 41 41 39 37 35 32 30 28 26 25 23 22 21 20 18 17 15 14 12 11 9 7 6 4 3 3 3 3 4 5 5 7 8 9 9 10 11 11 12 13 14 16 18 21 25 29 34 38 43 49 54 58 61
55 51 48 48 49 49 49 48 47 46 45 44 44 43 43 42 41 39 38 35 34 32 31 31 33 35 38 40 41 43 43 44 43 43 42 40 37 35 32 30 28 26 25 24 22 21 19 18 16 14 13 11 10 8 6 5 3 3 3 3 4 4 5 6 7 8 9 10 11 12 13 14 16 18 20 23 27 31 35 40 45 50 56 61 65 67
52 49 49 49 49 49 48 47 46 45 44 44 43 42 41 40 39 37 36 34 33 33 33 34 36 38 41 43 45 46 46 46 45 44 42 40 38 35 33 30 28 27 25 24 22 20 18 17 15 13 12 10 9 7 5 4 3 3 3 3 4 5 6 7 8 9 10 11 12 14 15 17 20 23 26 29 32 36 40 44 50 56 61 66 68 69
51 49 49 50 49 48 47 46 45 45 44 43 42 41 40 39 37 36 35 34 34 35 36 38 40 42 44 46 48 49 49 48 46 45 43 40 38 35 33 31 29 27 25 24 22 20 18 16 14 12 11 9 7 6 4 3 3 3 3 4 5 6 7 8 9 10 12 13 15 17 19 22 25 27 30 33 35 39 42 47 52 58 63 67 69 71
50 50 50 49 48 47 46 45 44 44 43 42 41 40 39 37 36 35 34 35 36 37 40 42 44 46 48 49 51 51 51 49 47 45 43 41 38 36 33 31 29 27 25 23 21 19 17 15 13 11 10 8 6 5 3 3 3 3 4 5 6 7 8 10 11 12 14 17 19 21 24 26 28 30 32 34 36 38 42 46 51 56 61 64 67 69
51 50 49 48 47 46 45 44 43 43 42 41 40 39 38 37 36 35 35 36 38 40 43 46 48 50 52 53 53 53 53 51 48 46 43 41 38 36 34 31 29 27 25 23 20 18 16 14 12 11 9 7 5 4 3 3 3 4 4 6 7 8 10 11 13 16 18 21 23 25 27 28 29 29 30 32 33 35 38 42 45 49 53 57 61 65
51 50 49 47 46 45 44 43 43 42 41 40 39 38 37 37 37 37 38 39 41 43 46 49 51 53 55 56 56 56 55 52 49 46 43 41 39 36 34 31 29 27 24 22 19 17 15 13 11 10 8 6 4 3 3 3 3 4 5 7 8 10 12 14 17 19 22 24 25 26 26 26 26 27 27 28 30 32 34 36 39 42 45 49 54 60
51 49 47 46 45 44 43 43 42 41 40 39 38 37 36 36 37 38 40 42 44 47 50 52 54 55 57 58 58 58 56 53 50 47 44 41 38 36 33 31 28 26 23 21 18 16 14 12 10 8 6 5 4 3 3 3 4 5 6 8 10 12 15 18 20 22 24 24 25 24 24 24 24 24 25 26 27 28 30 32 34 37 40 44 49 56
50 48 46 44 44 43 43 42 41 40 39 38 37 36 35 35 36 38 41 44 47 50 53 55 56 57 57 58 59 58 57 54 51 48 44 41 38 35 33 30 28 25 22 20 17 15 13 11 9 7 5 4 3 3 3 4 5 6 8 10 13 15 18 20 22 23 23 23 23 22 22 22 22 23 23 25 26 27 28 30 32 34 37 41 47 54
49 46 44 44 43 43 42 41 40 40 39 38 37 36 36 36 38 40 43 46 49 52 55 58 58 58 57 57 58 58 57 54 52 48 45 41 38 35 32 30 27 24 21 18 16 14 12 10 8 6 4 3 3 3 4 5 6 8 10 13 16 18 21 22 22 22 22 22 21 21 21 21 22 22 23 24 25 26 27 28 30 32 35 40 46 53
47 45 44 44 43 43 42 41 40 40 39 38 39 39 39 39 40 42 44 47 51 54 57 59 60 59 57 57 57 57 56 54 51 48 44 40 36 34 31 29 26 23 20 18 15 13 11 9 7 5 4 3 3 3 4 6 8 10 13 16 18 20 22 22 22 22 21 21 21 21 21 21 22 23 23 24 25 26 26 27 28 30 34 39 45 53
46 45 44 44 44 43 42 42 42 41 41 40 40 40 40 41 43 45 47 50 53 56 58 60 61 61 59 57 56 56 55 54 51 48 43 39 35 32 30 27 25 22 19 16 14 12 10 7 5 4 3 3 3 4 5 7 10 12 16 18 20 21 22 22 22 22 22 21 21 21 21 21 22 23 23 24 24 25 25 26 27 30 33 39 45 53
46 46 46 45 45 44 43 43 43 43 42 42 42 42 43 44 46 48 50 53 55 57 59 61 62 62 61 58 56 55 54 53 50 47 43 38 34 31 28 26 23 21 18 15 13 10 8 6 4 3 3 3 4 5 6 9 12 15 18 20 21 22 22 22 22 22 22 21 21 21 21 21 21 22 23 23 23 24 25 27 29 32 35 40 47 55
47 47 47 47 46 45 45 44 44 44 43 43 44 44 45 47 49 51 53 56 57 59 60 61 62 62 62 60 57 55 53 52 49 45 41 37 33 29 26 24 22 19 16 14 11 9 7 5 4 3 3 3 4 6 8 11 15 18 20 21 22 22 22 22 22 22 21 21 20 20 20 20 20 21 22 22 24 25 28 30 32 35 38 43 50 58
48 48 48 48 47 47 46 46 46 46 45 46 46 47 48 50 52 54 56 58 59 60 61 61 62 62 61 59 57 55 53 51 48 44 40 35 31 28 25 23 20 18 15 12 10 8 5 4 3 3 3 4 5 8 10 14 17 19 21 21 22 22 22 22 22 21 20 19 18 18 18 19 19 20 21 23 26 29 32 34 37 39 43 47 54 61
50 50 50 49 49 49 48 48 48 48 48 48 49 50 52 53 55 57 59 60 61 62 62 62 62 62 61 59 57 55 52 50 46 43 38 34 30 27 24 21 18 16 13 11 9 6 5 4 3 3 3 5 7 9 12 15 18 20 21 21 22 22 22 21 20 19 18 17 17 17 17 18 19 20 22 26 29 33 36 38 41 43 47 52 58 65
52 51 51 51 51 51 50 50 50 50 51 51 52 54 55 57 59 60 61 63 64 65 65 65 64 62 61 59 57 55 52 49 45 41 37 33 29 25 22 19 17 14 12 10 7 5 4 3 3 3 4 6 8 11 14 17 18 19 20 20 21 21 20 19 18 17 15 15 15 15 16 17 19 21 25 29 32 36 39 41 44 47 51 56 62 68
53 53 52 52 52 53 53 52 53 53 53 54 56 57 59 61 62 64 65 65 66 67 68 68 67 64 62 60 58 55 52 48 44 40 35 31 27 23 20 17 15 13 11 8 6 4 3 3 3 3 4 7 9 12 15 17 18 18 19 19 19 19 18 17 15 14 14 14 14 15 16 18 20 24 27 31 35 38 41 43 46 49 54 59 65 70
55 55 54 54 54 55 55 55 55 56 56 57 59 60 62 64 66 67 67 68 69 70 71 71 69 67 65 63 60 56 52 47 43 38 33 29 25 21 18 16 14 12 9 7 5 4 3 3 3 4 6 8 11 14 16 17 17 18 18 18 18 17 16 15 14 13 12 13 14 15 17 19 22 26 30 34 37 40 43 46 48 51 55 60 66 70
57 57 56 56 57 57 57 57 58 58 59 60 61 63 66 67 68 69 69 70 71 73 74 73 72 69 67 63 60 55 51 46 41 36 31 27 23 20 17 15 12 10 8 6 4 3 3 3 4 5 7 10 12 15 16 16 17 17 18 18 17 16 14 13 12 12 12 12 14 15 18 21 24 28 32 36 40 44 47 49 50 52 55 60 65 69
59 59 59 59 59 59 60 60 60 60 61 62 64 66 68 69 70 70 70 70 72 73 74 74 73 70 67 63 59 55 50 44 39 34 29 25 21 18 15 13 11 9 7 5 4 3 3 3 4 6 9 11 14 15 16 16 17 17 18 17 16 14 13 12 11 11 11 13 14 17 19 23 27 31 35 40 44 48 51 53 53 53 54 58 62 67
61 61 61 61 62 62 62 62 62 63 64 66 67 69 70 71 71 71 70 70 71 71 72 72 72 70 67 63 59 54 48 43 37 32 27 23 20 17 14 12 10 8 6 4 3 3 3 4 6 8 11 13 14 15 16 17 17 17 17 16 14 13 12 11 11 11 11 13 16 18 22 26 30 35 39 44 48 53 57 58 57 55 54 56 59 64
64 64 64 64 64 64 64 65 66 67 68 69 71 72 73 73 72 71 70 69 69 70 71 71 71 70 67 63 58 52 47 41 35 30 25 21 18 15 13 11 9 7 5 4 3 3 3 5 7 10 12 14 15 16 17 17 18 17 16 15 13 12 11 10 10 11 12 14 17 21 25 30 35 39 43 46 51 56 61 63 62 59 55 55 57 61
67 67 67 67 67 67 67 68 69 70 71 72 73 74 75 74 74 73 71 70 70 70 70 71 71 69 66 62 56 51 45 39 34 28 23 19 17 14 12 10 8 6 4 3 3 3 4 6 9 12 14 15 16 17 17 18 17 16 15 13 12 11 10 10 10 11 13 16 20 25 30 35 39 42 43 46 50 55 62 65 66 63 59 55 55 58
70 70 70 70 70 70 71 72 72 73 74 75 75 76 76 75 74 73 72 71 71 71 71 71 70 68 65 60 55 48 42 37 31 26 21 18 15 13 11 9 7 5 4 3 3 4 5 8 11 13 15 16 17 18 18 18 17 16 14 12 11 10 9 10 11 12 15 19 24 30 36 39 41 41 40 41 45 51 59 65 67 66 62 58 55 56
72 72 72 73 73 73 74 74 74 75 76 76 76 76 75 75 74 74 73 72 72 71 71 71 69 66 63 58 52 46 40 34 29 24 19 16 14 12 10 8 6 4 3 3 3 4 7 10 13 15 17 17 18 18 18 17 16 14 13 11 10 9 9 10 11 14 17 23 29 35 40 40 38 36 33 34 38 45 54 63 67 68 66 60 56 54
74 74 74 75 75 75 75 75 75 76 77 77 77 76 75 74 74 74 73 72 72 72 72 71 68 65 61 56 50 44 37 31 26 21 18 15 13 11 9 7 5 4 3 3 3 5 9 13 16 17 18 18 19 19 18 17 15 13 12 10 9 9 9 10 13 16 21 27 34 39 41 37 33 28 26 27 31 38 48 59 66 69 68 63 58 54
75 76 76 77 76 76 76 76 76 77 78 77 77 76 75 74 74 74 73 73 73 73 72 71 68 64 59 53 47 41 35 29 24 19 16 14 11 10 8 6 4 3 3 3 4 7 10 14 17 19 19 19 19 18 17 16 14 12 11 9 9 9 9 12 15 19 25 33 38 41 39 32 26 22 19 21 25 33 43 54 62 68 68 65 60 55
78 79 79 79 78 77 76 76 77 78 78 78 77 76 75 75 75 76 75 75 74 74 73 71 67 63 57 50 44 38 32 26 21 18 15 12 10 8 6 5 4 3 3 4 6 9 12 15 18 19 20 20 19 18 17 15 13 11 10 9 8 9 10 13 17 23 30 37 40 39 34 26 21 17 15 17 21 29 39 49 58 64 67 65 61 56
80 81 81 80 78 77 77 78 79 79 79 79 78 77 77 78 78 78 77 76 75 74 73 70 66 60 54 47 41 34 28 23 19 16 13 11 9 7 5 4 3 3 3 5 9 12 16 18 19 19 20 20 19 17 16 14 12 10 9 8 8 10 12 16 21 27 34 39 39 35 28 21 17 15 14 15 19 26 35 45 52 58 62 63 60 57
82 82 81 80 79 78 79 80 80 81 81 80 80 80 80 80 80 79 78 77 75 73 71 68 63 58 51 45 38 32 26 21 18 15 12 10 8 6 4 3 3 3 4 7 11 15 19 20 20 20 20 20 18 17 15 13 11 10 8 8 9 11 14 18 24 31 37 39 36 30 23 18 16 15 14 14 18 24 33 40 46 50 54 57 58 56
82 81 80 79 79 79 80 80 81 81 81 81 81 82 82 81 81 80 79 77 75 72 70 66 60 54 48 42 35 29 24 19 16 13 11 9 7 5 4 3 3 4 6 9 14 17 20 21 21 21 20 19 18 16 14 12 10 9 8 9 10 13 17 22 28 34 39 38 33 26 19 18 17 16 15 14 17 22 30 36 40 42 46 50 52 53
81 80 79 80 80 80 81 81 81 81 82 82 82 82 82 82 81 80 78 76 74 71 68 63 57 51 44 38 32 26 21 18 15 12 10 8 6 4 3 3 3 5 8 12 16 19 21 21 21 21 20 19 17 15 13 11 10 9 8 9 12 16 21 26 32 37 39 36 29 23 19 18 18 18 17 15 16 21 28 34 36 37 38 42 45 47
80 79 80 81 81 82 81 81 81 81 82 82 83 83 82 82 81 80 78 76 74 71 67 61 54 48 41 35 29 24 19 16 13 11 9 7 5 4 3 3 4 6 10 15 18 20 22 22 21 21 20 18 16 14 12 11 10 9 9 11 14 19 25 31 36 39 39 33 27 22 20 20 20 20 18 16 17 20 27 33 35 34 33 36 38 41
80 80 81 82 82 81 81 81 81 81 82 83 83 83 83 82 81 80 78 76 73 69 65 58 52 45 39 32 26 21 18 15 12 10 8 6 4 3 3 3 6 9 13 17 20 21 22 22 21 21 19 17 15 13 11 10 9 9 10 13 17 23 29 35 39 40 38 32 26 23 22 22 22 21 19 17 18 21 27 33 35 34 32 33 34 37
81 82 82 82 82 81 80 80 81 82 82 83 83 83 83 82 81 80 78 75 72 68 62 56 49 43 36 30 24 19 16 13 11 9 7 5 4 3 3 4 7 11 16 19 21 22 22 22 21 20 18 17 15 13 11 10 9 10 11 16 22 29 35 39 41 40 36 31 27 25 25 24 23 22 20 19 19 22 29 35 37 37 34 34 34 36
82 83 83 82 82 81 80 80 81 82 83 83 83 83 83 82 81 79 77 74 70 65 59 53 46 40 33 27 22 18 15 12 10 8 6 4 3 3 4 6 10 14 18 20 22 23 23 22 21 19 18 16 14 12 10 10 10 11 13 19 26 34 40 42 42 40 36 32 29 28 27 26 25 23 21 21 22 26 33 39 42 41 39 38 38 40
83 83 83 82 81 80 79 80 81 82 83 83 83 83 82 82 81 79 76 73 68 62 56 50 43 36 30 24 19 16 13 11 9 6 5 4 3 4 5 9 12 16 20 21 23 23 23 22 21 19 17 15 13 11 10 10 10 12 15 22 30 37 42 43 43 40 37 34 32 30 29 27 25 23 23 23 25 30 37 44 46 45 43 43 44 46
84 83 83 81 80 79 79 80 81 82 83 83 82 82 82 82 81 79 76 71 66 60 53 46 40 33 27 22 18 14 12 10 7 5 4 3 4 5 7 11 15 18 21 23 24 24 24 22 21 19 17 14 12 11 10 11 12 14 18 26 35 42 47 47 46 43 40 38 36 33 31 27 25 24 25 27 30 35 42 48 50 50 48 48 49 51
83 83 82 80 79 78 79 81 82 83 83 83 82 82 82 81 80 78 74 68 62 56 50 43 36 30 24 20 16 13 10 8 6 5 3 3 4 6 10 14 17 20 22 23 24 24 24 22 20 18 16 14 12 11 11 12 13 16 21 29 37 45 52 53 51 48 45 43 39 35 31 27 26 26 28 32 36 41 48 53 54 54 52 52 52 54
83 82 80 79 78 79 81 82 83 83 83 83 82 82 82 80 78 75 71 65 59 52 46 39 33 26 21 18 15 12 9 7 5 4 3 4 6 8 12 16 19 21 23 24 25 25 23 22 20 18 15 13 12 11 12 13 15 18 23 32 40 47 54 56 56 54 51 46 41 36 31 27 27 29 33 37 42 48 55 58 58 57 55 55 55 57
82 81 79 79 79 81 82 83 83 83 83 82 82 82 81 79 76 72 67 61 55 49 42 35 29 24 19 16 13 11 8 6 5 4 3 5 7 11 15 19 21 22 24 25 25 24 23 22 19 17 14 12 11 11 12 13 16 20 26 35 43 52 59 61 61 58 54 47 41 35 30 28 29 33 38 43 49 55 60 62 61 60 58 58 58 59
82 81 79 80 81 83 84 84 83 83 82 82 82 82 80 77 73 68 63 57 51 45 38 31 26 21 18 15 12 10 7 5 4 3 4 6 9 13 18 21 23 24 24 25 25 24 23 21 19 17 14 12 11 11 12 14 16 21 27 37 46 55 62 63 61 57 51 44 37 33 29 29 32 37 43 48 54 59 64 64 64 62 61 60 60 60
82 81 81 82 83 83 83 83 83 83 82 82 82 81 78 75 70 65 60 54 48 42 34 28 23 19 16 13 11 9 6 5 4 3 4 7 11 16 20 23 24 25 25 25 24 23 22 20 18 16 13 12 11 11 12 14 18 22 28 37 46 54 59 58 55 51 45 39 34 31 30 32 36 42 48 52 57 61 65 66 65 64 64 62 60 58
82 82 82 83 83 83 83 83 83 82 82 82 81 79 76 72 68 63 58 51 45 38 31 25 21 18 15 12 10 7 5 4 3 3 5 9 13 18 22 24 25 26 26 25 24 23 22 20 18 15 13 11 11 11 12 14 18 23 29 36 43 49 53 51 48 43 39 35 32 31 32 35 41 46 51 54 58 62 65 66 66 65 64 61 57 52
81 81 82 83 83 83 83 83 82 82 82 82 80 77 74 70 65 60 55 48 41 34 28 23 19 16 13 11 9 6 5 4 3 4 6 10 15 19 23 25 26 26 26 25 24 23 21 20 17 15 12 11 11 11 13 15 19 24 30 35 39 43 45 44 41 37 34 32 32 33 35 39 44 49 52 55 59 62 65 66 66 64 62 56 50 43
80 80 82 83 83 83 83 83 82 82 82 81 79 76 72 68 63 57 51 44 37 31 25 21 18 15 12 10 7 6 4 3 4 5 8 12 17 21 24 26 27 27 27 26 24 23 21 19 17 14 12 11 11 11 13 17 22 26 31 34 36 38 39 38 36 33 31 31 33 35 38 41 45 49 52 55 59 61 64 64 63 60 55 48 41 34
79 80 82 83 83 83 83 82 82 82 82 80 78 75 71 66 60 54 48 41 34 28 23 19 16 13 10 8 6 5 4 3 4 6 10 14 18 22 24 26 27 27 27 26 24 23 21 19 16 13 11 11 11 12 14 18 23 28 32 34 35 36 36 35 33 30 29 31 34 38 40 43 46 49 51 54 57 60 61 60 57 52 45 38 32 27
79 81 83 83 83 83 82 82 82 82 81 79 76 73 69 64 58 51 44 37 31 26 21 18 15 12 9 7 5 4 3 4 5 8 12 16 19 23 25 26 27 27 27 26 24 22 20 17 15 12 10 10 11 13 15 19 24 28 33 35 35 35 35 33 30 28 28 33 37 40 42 43 46 48 51 53 55 57 57 53 48 42 36 31 27 25
Wind_Speed
35 35 35 35 36 38 39 40 41 43 44 45 46 47 47 48 48 49 49 49 49 50 50 51 52 53 55 56 57 58 59 60 61 62 62 63 64 64 65 66 67 68 69 70 70 71 72 73 74 75 77 78 80 81 83 85 86 86 86 84 82 79 77 74 72 70 69 68 67 66 67 67 68 69 70 71 72 73 74 74 74 74 73 72 71 69
34 34 35 36 37 38 39 41 42 43 44 45 46 47 47 48 48 48 49 49 49 49 50 51 53 54 55 57 58 59 60 61 62 62 63 64 65 65 66 67 68 69 70 70 71 72 73 74 75 76 77 79 80 82 84 85 86 86 85 83 80 78 76 73 72 70 69 68 67 67 68 69 70 71 72 73 74 75 75 76 76 75 74 73 72 70
33 34 35 36 38 39 40 41 42 43 44 45 46 47 47 48 48 48 48 49 49 50 51 52 53 55 56 57 58 60 61 62 62 63 64 64 65 66 67 68 69 70 70 71 71 72 73 74 76 77 78 80 81 83 85 86 86 85 83 81 79 77 75 73 71 69 68 68 68 68 69 70 71 73 74 75 76 76 77 77 77 76 75 74 72 70
33 34 36 37 38 39 40 41 42 43 44 45 46 47 47 47 47 47 48 48 49 50 51 53 54 55 57 58 59 60 61 62 63 64 64 65 66 67 68 69 69 70 71 71 72 73 74 75 76 78 79 81 82 84 85 86 85 84 82 80 78 76 74 72 70 69 69 69 69 70 71 72 73 75 76 77 77 78 78 78 77 76 75 74 72 70
33 35 36 38 39 40 41 42 42 44 45 45 46 46 47 47 47 47 48 48 49 51 52 53 55 56 58 59 60 61 62 63 63 64 65 66 67 67 68 69 70 70 71 72 72 73 75 76 77 79 80 82 83 85 86 85 84 83 81 78 76 75 73 71 70 70 69 70 70 71 73 74 75 76 77 78 78 78 78 78 78 77 75 74 72 70
34 35 37 38 39 40 41 42 43 44 45 46 46 46 46 46 47 47 48 49 50 51 53 54 56 57 59 60 61 61 62 63 64 65 65 66 67 68 69 70 70 71 71 72 73 74 76 77 78 80 81 83 84 85 86 85 83 81 79 77 75 74 72 71 70 70 70 71 72 73 74 75 77 78 78 79 79 79 79 79 78 77 75 73 71 69
35 36 37 38 39 40 41 42 43 44 45 46 46 46 46 46 46 47 48 49 50 52 54 55 57 58 59 60 61 62 63 63 64 65 66 67 67 68 69 70 70 71 72 73 74 75 77 78 79 81 82 84 85 86 85 84 82 80 78 76 74 73 71 71 70 71 71 72 73 75 76 77 78 79 79 80 80 80 80 79 78 76 75 73 70 68
36 37 38 38 40 41 41 42 43 44 45 45 45 46 46 46 46 47 48 49 51 53 55 56 58 59 60 61 62 62 63 64 65 66 66 67 68 68 69 70 71 71 73 74 75 76 78 79 81 82 84 85 86 85 84 82 80 78 76 75 73 72 71 71 71 71 73 74 75 76 77 78 79 80 80 80 80 80 80 79 78 76 74 72 69 66
36 37 38 39 40 41 42 43 44 44 45 45 45 45 45 46 47 48 49 50 52 54 55 57 58 60 60 61 61 62 63 64 65 66 67 67 68 69 69 70 71 72 73 75 76 77 79 80 82 84 85 86 85 84 83 81 79 77 75 74 72 72 71 71 72 73 74 75 76 78 79 79 80 81 81 81 81 81 80 79 78 76 74 71 68 64
36 37 38 39 40 41 42 43 44 45 45 45 45 45 45 46 47 48 50 51 53 55 56 57 58 59 60 61 61 62 63 64 65 66 67 67 68 69 69 70 71 73 74 76 77 78 80 82 83 85 85 85 84 83 81 79 77 75 74 73 72 72 72 72 73 74 75 77 78 79 80 81 81 81 82 82 81 81 80 79 77 75 72 69 65 62
36 37 38 39 40 41 42 43 44 45 45 45 45 45 46 46 47 49 50 52 54 55 57 58 59 59 60 61 61 62 63 64 65 67 67 68 68 69 70 71 72 73 75 76 78 79 81 83 84 85 85 84 83 81 79 77 75 74 73 72 72 72 73 74 75 76 77 78 79 80 81 81 82 82 82 82 81 80 79 78 76 73 70 66 62 58
37 37 38 39 41 42 43 44 44 45 45 45 46 46 47 47 48 50 51 53 54 56 57 59 59 60 60 61 61 62 63 64 65 66 67 68 68 69 70 71 73 74 76 77 79 80 82 83 85 85 84 83 81 79 77 75 74 73 72 72 73 73 74 75 77 78 79 80 81 82 82 82 82 82 82 82 81 80 78 76 73 70 66 63 59 55
37 38 39 40 41 42 43 44 44 45 45 45 46 46 47 48 49 51 52 54 55 56 58 59 60 61 61 62 62 62 63 64 65 66 67 68 68 69 70 72 73 75 76 78 79 81 82 84 84 84 83 81 79 77 75 73 73 72 73 73 74 75 76 77 79 80 81 82 82 83 83 83 83 82 82 81 80 78 76 73 70 67 63 59 55 52
37 38 39 40 41 42 43 44 44 45 45 45 46 47 48 49 50 52 53 54 56 57 58 59 60 61 62 62 63 63 63 64 65 66 67 68 68 69 70 72 74 75 77 78 80 82 83 84 83 82 81 79 77 75 73 73 72 73 74 75 76 77 78 79 80 82 83 83 84 84 84 83 83 82 81 79 78 75 73 70 66 63 59 56 52 49
37 38 39 41 42 43 43 44 45 45 46 46 47 48 49 50 51 52 54 55 56 57 58 59 60 61 62 62 63 63 64 64 65 66 67 68 68 69 70 72 74 76 77 79 81 82 83 83 82 80 78 76 74 73 72 72 73 74 75 76 77 78 79 81 82 83 84 84 84 84 84 83 82 81 79 77 75 72 69 66 63 59 56 53 50 47
37 39 40 41 42 43 44 44 45 45 46 47 47 48 49 51 52 53 54 56 57 58 59 60 60 61 62 63 63 63 64 64 65 65 66 68 68 69 70 72 74 76 78 79 81 82 83 82 80 78 76 74 73 72 72 73 74 75 76 77 78 80 81 82 84 84 85 85 85 84 83 82 81 79 77 75 72 69 65 62 59 56 53 50 47 45
38 39 40 41 42 43 44 44 45 46 46 47 48 49 50 51 53 54 55 56 58 59 60 60 61 61 62 63 64 64 64 64 65 65 66 67 68 69 70 71 73 76 78 79 81 82 81 80 78 76 74 73 72 72 72 73 75 76 77 78 79 81 82 84 85 85 86 86 85 84 82 81 79 77 74 71 68 65 61 58 56 53 51 48 46 43
38 39 40 42 43 43 44 45 46 46 47 48 49 50 51 52 53 54 56 57 59 60 61 61 62 62 63 63 64 65 65 64 65 65 66 67 68 69 70 71 73 75 77 79 80 81 80 78 76 74 73 72 72 72 73 74 75 76 78 79 80 82 83 85 86 86 86 85 84 82 80 78 76 73 70 67 64 60 58 55 53 51 49 46 44 42
38 39 41 42 43 44 45 45 46 47 48 49 50 51 52 53 54 55 57 58 59 60 61 62 63 63 63 64 65 65 65 64 64 65 66 67 68 69 70 71 73 76 77 79 79 79 78 76 74 73 72 72 72 73 74 75 76 77 78 80 81 83 84 86 86 86 86 84 83 80 78 76 73 70 66 63 59 57 54 52 51 49 47 44 42 40
39 40 41 42 43 44 45 46 46 47 48 49 50 51 52 53 55 56 57 58 60 61 62 62 63 63 64 64 65 65 65 65 64 65 65 66 67 68 70 71 74 76 77 78 79 78 77 75 74 73 72 72 73 74 74 75 76 78 79 81 83 84 86 87 87 86 85 83 80 78 75 72 69 65 61 58 55 53 52 50 49 47 44 42 40 39
39 40 41 43 44 45 46 47 47 48 49 50 51 52 53 54 55 56 57 59 60 61 62 62 63 64 64 65 65 65 65 64 64 65 65 66 67 69 70 72 74 76 77 78 78 77 76 74 73 73 73 73 74 74 75 76 77 79 80 82 84 85 87 87 87 86 83 81 78 75 72 68 64 60 57 54 52 51 50 48 47 45 42 40 38 37
40 41 42 43 44 46 47 47 48 49 50 51 52 53 54 55 56 57 58 59 60 61 62 62 63 64 64 65 65 65 65 65 65 65 66 66 68 69 70 72 74 76 77 77 78 77 75 74 73 73 73 74 74 75 76 77 79 80 82 84 85 87 88 87 86 84 81 78 75 71 68 63 59 56 53 51 50 49 48 47 45 43 40 38 37 36
40 42 43 44 45 46 47 49 50 51 52 52 53 54 54 55 56 57 58 59 60 61 62 62 63 64 64 65 65 65 65 65 65 65 66 67 68 70 71 72 74 76 77 77 77 76 75 74 73 73 74 74 75 75 77 78 80 82 84 85 87 88 88 87 85 82 78 75 71 67 63 58 54 51 50 49 48 48 47 46 43 41 38 36 35 35
41 43 44 45 46 47 49 50 51 52 53 54 54 55 55 55 56 57 58 60 61 62 62 63 63 64 64 65 65 65 65 65 65 66 67 68 69 70 71 73 75 76 77 77 76 75 74 73 73 73 74 74 75 76 78 79 81 83 85 86 88 88 87 85 82 79 75 72 67 62 57 53 50 48 47 47 47 47 46 45 42 39 37 34 33 33
43 44 45 46 47 48 50 51 52 53 54 55 55 55 55 56 56 58 59 61 61 62 62 63 63 63 64 64 64 65 65 65 65 66 67 68 69 71 72 73 75 76 77 77 76 74 73 73 73 73 74 75 76 77 79 81 83 85 86 87 88 87 85 83 79 76 72 67 62 57 52 48 46 46 46 46 47 47 46 44 41 38 35 33 32 31
44 45 46 47 48 49 51 52 53 54 55 55 55 55 55 56 57 58 60 61 62 62 62 63 63 63 63 64 64 64 65 65 65 66 67 69 70 72 73 74 76 76 77 76 75 74 73 73 73 74 74 75 77 78 80 82 84 86 87 88 87 86 83 80 76 72 68 63 57 51 47 44 44 44 45 46 47 47 46 44 41 37 34 31 30 30
44 45 46 48 49 50 51 52 53 54 55 55 55 55 55 56 58 59 60 61 62 62 63 63 63 63 63 63 64 64 64 65 65 66 68 69 71 72 74 75 76 77 76 75 74 73 72 73 73 74 75 76 78 79 81 83 85 86 87 87 86 84 81 77 73 68 63 57 51 46 43 42 42 43 45 46 47 47 46 44 41 37 33 30 28 28
45 46 47 48 49 50 51 52 53 54 55 55 55 56 56 57 58 59 61 62 62 63 63 63 62 62 62 63 63 64 64 65 66 67 68 70 72 73 75 76 77 77 76 75 73 72 72 72 73 75 76 77 79 80 82 84 86 87 87 86 85 82 78 74 69 64 58 52 46 42 40 40 41 43 45 46 47 47 47 44 41 36 32 29 27 26
45 46 47 47 48 49 51 52 53 54 55 55 56 56 57 58 59 60 61 62 63 63 63 63 62 62 62 62 63 64 64 65 66 67 69 71 73 74 76 77 77 77 76 74 73 72 72 72 73 74 76 78 80 81 83 85 86 87 86 85 82 79 74 70 65 59 53 46 42 39 39 40 41 43 45 47 48 48 47 44 41 36 32 28 26 25
45 45 46 47 48 49 50 52 53 54 55 56 56 57 58 59 60 61 62 62 62 62 62 62 62 62 62 62 63 63 64 65 66 68 69 71 73 75 76 77 77 77 76 74 73 72 72 72 73 74 76 78 80 82 84 85 86 86 85 83 80 76 71 66 60 54 47 42 39 38 38 40 42 44 45 47 48 48 47 44 40 36 31 27 25 23
44 45 46 46 47 49 50 51 53 54 55 56 57 58 59 60 60 61 62 62 62 62 61 62 62 62 62 62 63 63 64 66 67 68 70 72 74 75 77 77 77 77 75 73 72 71 72 72 74 75 77 79 81 83 85 86 86 86 84 81 77 72 67 62 55 49 43 39 37 37 38 40 42 44 46 47 48 48 47 44 40 36 31 27 24 22
43 44 45 46 47 48 50 51 53 54 56 57 58 58 59 60 61 61 61 61 61 61 61 61 62 62 62 63 63 64 65 66 68 69 71 73 75 76 77 77 76 76 75 73 71 70 71 72 74 76 78 80 82 84 85 86 86 84 82 79 74 69 63 57 51 45 40 37 36 37 39 41 43 44 46 47 47 47 46 43 40 36 31 27 24 21
43 44 45 46 47 48 50 51 53 54 56 57 58 59 60 60 61 61 61 61 60 60 61 61 61 62 62 63 64 65 66 67 69 70 72 74 75 76 77 76 75 74 73 72 72 71 72 73 74 76 79 81 82 84 85 86 85 83 80 76 71 66 60 53 47 41 37 36 36 38 39 41 43 44 46 46 47 46 45 43 39 35 31 27 23 21
42 44 45 46 47 49 50 51 53 54 56 57 58 59 60 60 60 60 60 60 60 60 60 61 61 61 62 63 64 65 67 68 70 71 73 74 75 76 76 75 74 72 71 71 71 72 73 74 76 77 80 82 83 85 85 85 84 82 78 73 68 62 56 50 44 39 36 36 36 38 40 42 43 45 45 46 46 45 44 41 38 34 30 26 23 20
43 44 46 47 48 49 50 51 52 54 55 57 58 59 60 60 60 60 60 59 60 60 60 60 60 61 61 62 63 65 67 69 71 72 74 75 75 75 75 74 72 71 70 70 70 71 73 75 77 78 80 82 84 85 85 84 82 79 76 71 65 58 52 46 41 38 36 35 36 38 40 42 44 45 46 45 45 44 42 40 37 33 29 26 22 20
44 45 46 47 48 49 50 51 52 54 55 56 58 59 59 60 59 59 59 59 59 59 60 60 60 61 61 62 63 65 67 69 71 73 74 75 75 74 73 72 71 70 70 70 71 72 73 75 77 79 81 82 84 85 85 83 81 77 73 68 62 55 49 43 39 37 35 36 37 38 40 42 44 45 46 45 44 42 41 39 36 32 28 25 22 19
44 46 47 48 49 50 51 52 53 54 55 56 57 58 59 59 58 58 58 58 58 59 59 60 60 61 61 62 63 65 67 69 71 73 74 75 75 73 72 71 70 69 69 70 71 73 74 76 78 80 82 83 84 83 82 81 79 75 70 64 58 52 47 42 38 36 35 36 37 39 41 43 45 46 46 45 43 41 39 37 34 31 28 24 21 19
44 46 47 49 50 51 52 52 53 54 54 55 56 57 57 57 57 56 57 57 57 58 58 59 60 61 62 63 64 66 67 69 72 73 74 74 73 72 70 70 69 69 69 70 72 73 75 77 79 81 83 84 84 83 81 78 75 71 66 61 55 49 44 40 37 36 35 36 38 40 42 44 46 46 46 44 42 39 37 35 33 30 27 24 21 19
44 46 47 49 51 52 52 53 54 54 54 55 56 56 56 55 55 55 55 56 56 57 58 58 59 61 62 63 65 66 68 70 72 73 73 73 72 70 69 69 68 69 70 71 73 74 76 78 80 81 83 83 83 82 80 77 72 67 63 58 52 47 42 38 36 35 35 37 39 41 43 45 46 46 45 43 40 38 35 33 31 29 26 23 21 19
44 46 48 49 51 52 53 53 54 54 55 55 55 55 54 54 54 54 55 55 55 56 57 58 59 61 62 63 65 67 69 71 72 72 72 71 70 69 68 68 68 69 70 72 73 75 77 79 81 82 83 83 82 80 77 74 69 64 59 54 49 45 41 38 36 36 36 37 39 41 43 45 46 46 45 42 39 36 34 31 29 27 25 23 21 19
45 47 48 50 51 52 53 54 54 54 55 54 54 53 52 52 52 53 53 54 55 55 56 57 59 61 62 64 65 67 69 71 71 72 71 70 69 68 67 67 68 69 70 72 74 76 78 80 81 83 83 82 81 78 74 70 66 61 56 51 46 43 39 37 36 36 37 38 40 42 44 45 46 45 44 41 38 34 32 30 27 25 24 22 20 19
46 47 48 50 51 52 53 54 54 54 54 53 52 51 50 50 51 51 52 53 54 54 55 56 58 60 62 64 66 68 69 70 71 70 70 69 68 67 67 67 68 69 71 72 75 77 78 80 81 82 82 81 78 75 71 67 63 58 53 48 44 41 39 38 37 37 38 39 41 42 44 45 45 44 43 40 37 33 31 28 26 24 22 21 20 19
46 47 48 49 50 51 53 54 54 54 53 52 50 49 49 49 49 50 51 52 53 54 55 56 57 59 61 63 66 68 69 70 70 69 68 67 67 66 66 67 68 69 71 72 75 77 79 81 81 81 80 79 76 72 68 64 60 56 51 47 43 40 38 38 38 38 39 40 41 42 44 44 44 43 41 39 35 32 29 26 24 22 21 20 19 19
45 46 47 48 50 52 54 54 54 53 52 50 49 48 48 48 49 50 51 51 52 53 54 56 57 59 61 63 65 67 68 69 69 68 67 66 66 65 66 67 69 70 71 73 74 76 79 81 82 81 79 77 73 70 65 61 57 53 49 46 42 39 38 37 38 38 39 40 41 42 43 44 44 42 40 37 34 31 28 25 23 21 20 20 19 19
44 45 47 50 52 54 54 54 53 52 50 48 47 46 47 48 48 49 50 51 52 53 54 55 57 59 61 63 65 66 67 68 68 67 66 65 65 65 66 67 69 70 72 73 75 76 78 80 80 80 79 76 71 67 62 58 54 51 47 44 42 39 38 37 38 38 39 40 41 42 43 43 42 41 39 36 32 29 26 24 22 21 20 20 19 19
45 47 49 52 53 54 54 54 52 50 48 46 45 45 46 47 48 49 50 51 52 53 54 56 57 59 61 63 65 66 67 67 67 66 65 64 64 65 66 68 69 71 72 74 75 77 78 79 79 78 77 74 70 65 60 55 51 48 45 43 41 39 39 38 38 39 39 40 41 42 42 42 41 40 37 34 30 28 25 23 22 21 20 20 19 19
47 50 52 53 54 54 53 52 50 48 46 45 44 45 46 47 48 49 50 51 52 53 54 56 58 59 61 63 65 66 66 66 65 64 63 63 63 64 66 68 70 72 73 74 76 78 79 80 79 77 74 71 67 63 59 54 49 46 43 41 40 39 38 38 39 39 39 40 40 41 41 41 40 38 35 32 29 26 24 23 22 21 21 20 19 19
50 51 52 53 53 52 51 50 48 45 44 43 44 45 46 47 48 49 50 51 52 53 54 56 58 60 62 64 65 66 66 65 64 63 62 62 63 64 66 68 71 72 74 76 77 78 80 80 79 76 73 69 65 61 56 51 47 44 42 40 39 38 38 38 38 39 39 39 39 39 39 38 37 35 32 30 27 25 24 23 22 22 21 20 19 19
50 51 51 51 51 50 49 47 45 43 42 43 44 45 46 47 48 48 49 51 52 53 55 56 58 60 62 64 65 66 65 64 63 62 61 62 63 64 66 68 70 73 75 77 78 80 81 81 78 74 70 66 62 58 54 49 46 43 41 40 39 38 38 38 38 38 38 38 38 38 37 36 35 33 30 28 26 25 24 23 22 22 21 20 20 19
49 49 49 49 48 47 46 44 43 42 41 42 43 45 46 47 48 48 49 51 52 54 55 57 59 61 63 64 65 65 64 63 62 61 61 62 63 64 66 68 70 72 75 77 79 80 81 81 79 75 69 64 59 55 51 48 45 42 41 39 39 38 38 38 37 37 37 37 36 36 35 34 33 31 29 27 25 25 24 23 23 22 21 20 20 19
48 47 47 47 46 45 43 42 41 40 41 42 43 44 45 46 47 48 50 51 52 54 56 57 59 61 63 64 64 64 63 61 60 60 61 62 63 65 67 68 70 72 74 77 79 80 80 79 77 74 69 64 57 52 48 45 43 42 40 40 39 38 38 37 36 36 35 34 34 33 32 32 30 29 28 26 26 25 24 24 23 22 21 21 20 19
Wind_Direction
312 313 313 314 315 316 317 318 318 319 319 320 321 322 322 322 323 323 322 322 322 322 322 322 323 323 323 324 324 324 324 325 325 325 325 325 325 325 325 326 326 326 326 326 326 326 326 326 326 327 327 327 327 327 327 327 328 328 329 329 329 329 329 328 328 327 327 327 326 326 325 324 324 323 322 322 321 320 320 319 319 318 318 318 317 317
312 313 314 315 316 317 318 318 319 319 320 320 321 322 323 323 323 323 322 322 322 322 323 323 323 324 324 324 325 325 325 325 325 325 325 325 325 325 326 326 326 326 326 326 326 326 326 326 327 327 327 327 327 327 328 328 328 329 329 329 329 329 329 328 328 327 327 327 326 325 325 324 323 322 321 321 320 320 319 319 318 318 317 317 316 316
312 313 314 315 316 317 318 318 319 319 320 321 322 323 323 323 323 323 322 322 322 323 323 324 324 325 325 325 325 326 326 326 326 326 326 326 326 326 326 326 326 326 326 326 326 326 326 327 327 327 327 327 328 328 328 328 329 329 330 330 329 329 329 328 328 328 327 327 326 325 324 323 322 322 321 320 320 319 318 318 317 317 316 316 316 316
313 314 315 316 317 317 318 318 319 320 321 322 322 323 323 323 323 323 323 323 323 324 324 325 325 326 326 326 326 326 326 326 326 326 326 326 326 326 326 326 326 326 326 326 326 326 327 327 327 327 328 328 328 328 328 329 329 330 330 330 330 329 329 329 328 328 327 327 326 325 324 323 322 321 320 319 319 318 318 317 317 316 316 316 315 315
314 315 316 317 317 318 318 319 319 320 321 322 323 323 323 323 323 323 323 323 324 325 325 326 326 327 327 327 327 326 326 326 326 327 327 327 327 327 326 326 326 326 326 326 326 327 327 327 327 328 328 328 328 329 329 330 330 330 330 330 330 330 329 329 328 328 327 326 325 324 323 322 321 320 320 319 318 318 317 316 316 316 315 315 315 315
314 315 316 317 317 318 318 319 320 321 322 322 323 323 323 323 322 323 323 324 325 325 326 326 327 327 327 327 327 327 327 327 327 327 327 327 327 326 326 326 326 326 326 326 326 327 327 327 328 328 328 328 329 329 330 330 331 331 331 330 330 330 329 329 328 328 327 326 325 324 323 321 321 320 319 318 318 317 316 316 316 315 315 315 315 315
314 315 316 317 317 318 319 320 321 322 322 323 323 323 323 322 323 323 324 325 326 326 327 327 327 328 328 328 327 327 327 327 327 327 327 327 327 326 326 326 326 326 326 326 327 327 327 328 328 328 329 329 329 330 331 331 331 331 331 331 330 330 330 329 328 327 326 325 324 323 322 321 320 319 319 318 317 316 316 315 315 315 315 315 315 315
315 316 316 317 317 318 319 320 321 322 323 323 323 323 322 323 323 323 324 325 326 327 327 327 328 328 328 328 328 327 327 327 327 327 327 327 327 326 326 326 326 326 326 327 327 328 328 328 329 329 329 330 330 331 331 331 331 331 331 331 330 330 330 329 328 327 326 325 324 323 322 321 320 319 318 317 317 316 316 315 315 315 315 315 315 315
315 316 316 317 318 319 320 321 322 322 323 323 322 322 322 323 323 324 325 326 326 327 327 327 328 328 328 328 328 327 327 327 327 327 327 327 326 326 326 326 326 326 327 327 328 328 329 329 329 330 330 330 331 331 332 332 332 331 331 331 330 330 329 328 327 326 325 324 323 322 322 321 320 319 318 317 316 316 316 316 316 316 316 316 316 316
315 316 316 317 318 319 320 321 322 323 323 322 322 322 323 323 324 325 325 326 327 327 327 327 328 328 329 329 328 328 327 327 327 327 327 327 326 326 326 326 326 327 327 328 328 329 329 329 330 330 331 331 332 332 332 332 332 332 331 331 330 330 329 328 327 326 325 324 323 323 322 321 320 319 318 317 316 316 316 316 317 317 317 317 317 317
315 316 316 317 319 320 321 322 322 323 323 322 322 322 323 323 324 325 326 326 327 327 327 327 328 328 329 329 329 328 328 327 327 326 326 326 326 326 326 326 327 327 328 328 329 329 329 330 330 331 331 332 332 333 333 332 332 331 331 330 330 329 328 327 327 326 325 325 324 323 322 321 320 319 318 317 317 317 317 317 318 318 318 318 318 318
315 316 317 318 319 320 321 322 322 323 323 322 323 323 323 324 325 325 326 326 327 327 327 327 328 329 330 330 330 329 328 327 326 326 326 326 326 327 327 327 327 328 328 329 329 329 330 330 331 331 332 333 333 333 333 332 332 331 331 330 329 328 328 327 327 326 326 325 324 323 322 321 320 319 318 318 318 318 318 319 319 319 319 319 319 319
315 316 317 318 320 321 322 322 322 323 323 323 323 323 324 324 325 325 326 326 327 327 327 327 328 329 330 331 330 329 328 327 326 325 325 326 326 327 327 327 328 328 329 329 329 330 330 331 331 332 333 333 333 333 332 332 331 331 330 329 329 328 328 328 327 327 326 325 324 323 322 321 320 319 319 319 319 319 320 320 320 320 320 320 320 319
315 316 318 319 320 321 322 322 322 322 323 323 323 324 324 325 325 326 326 326 327 327 327 328 328 329 330 331 330 330 328 327 326 325 325 326 327 327 328 328 328 329 329 329 330 330 331 331 332 333 333 333 333 333 332 331 331 330 330 329 329 329 328 328 328 327 326 325 324 323 322 321 320 320 320 320 320 320 321 321 321 321 321 321 320 320
316 317 318 320 321 321 322 322 322 323 323 324 324 325 325 325 325 326 326 326 327 327 328 328 329 329 329 330 330 329 328 327 326 326 326 326 327 328 328 329 329 329 329 330 330 330 331 332 333 333 333 333 333 332 332 331 330 330 330 329 329 329 329 328 328 327 326 325 324 323 322 321 321 321 321 321 321 322 322 322 323 323 323 322 321 321
316 317 319 320 321 321 322 322 323 323 324 324 325 325 325 325 326 326 326 326 326 327 328 328 329 329 329 329 329 329 328 327 326 326 326 327 327 328 329 329 329 329 329 330 330 331 332 332 333 333 333 333 332 332 331 331 330 330 330 330 329 329 329 328 328 327 326 325 324 323 322 322 322 322 322 322 323 323 324 324 324 324 324 323 323 322
317 318 319 320 321 322 322 323 323 323 324 324 325 325 325 325 326 326 326 326 326 327 328 328 329 329 329 329 329 329 328 327 327 327 327 327 328 329 329 329 329 329 330 330 331 332 332 333 333 333 333 332 332 331 331 330 330 330 330 330 330 329 329 328 328 327 326 325 324 324 323 323 323 323 323 324 324 325 325 326 326 326 326 325 324 323
317 318 319 320 321 322 322 323 323 324 324 325 325 325 325 325 325 325 326 326 327 327 328 328 329 329 329 328 328 329 328 328 327 327 327 327 328 329 329 329 329 330 330 331 331 332 332 333 333 332 332 331 331 331 331 331 331 330 330 330 330 329 329 328 328 327 326 326 325 324 324 323 324 324 324 325 326 326 327 327 328 328 327 327 326 325
318 319 320 321 321 322 323 323 324 324 324 325 325 325 325 325 325 325 326 326 327 327 328 328 328 328 329 328 328 328 328 328 327 327 327 327 328 329 329 330 330 330 330 331 332 332 332 332 332 332 331 331 331 331 331 331 331 331 330 330 329 329 329 328 328 327 327 326 325 325 324 325 325 325 326 327 327 328 329 329 329 329 329 328 328 327
318 319 320 321 322 322 323 324 324 325 325 325 325 325 325 325 325 325 326 327 327 327 327 328 328 328 328 328 328 328 328 328 327 327 327 327 328 329 329 330 330 330 331 331 332 332 332 332 332 331 331 331 331 331 331 331 331 330 330 330 330 329 329 329 328 328 327 327 326 326 326 326 326 327 327 328 329 330 330 331 331 331 330 330 329 328
319 320 321 322 322 323 323 324 325 325 326 326 325 325 325 325 325 326 326 327 327 327 327 327 327 327 328 327 328 328 328 327 327 327 327 328 328 329 330 330 331 331 331 332 332 332 332 332 331 331 331 331 331 331 331 331 331 330 330 330 330 330 330 329 329 328 328 327 327 327 327 327 328 328 329 330 331 331 332 332 332 332 331 330 330 330
319 320 321 322 323 323 324 325 325 326 326 326 325 325 325 325 325 326 326 327 327 327 327 327 327 327 327 327 327 327 327 327 327 327 327 328 328 329 330 331 331 331 332 332 332 332 332 331 331 331 332 332 332 332 332 331 331 331 331 331 331 331 330 330 329 329 328 328 328 328 328 329 330 330 331 332 332 333 333 333 333 332 331 331 331 332
320 321 322 323 324 324 325 325 326 326 326 326 325 325 325 325 325 326 327 327 327 327 327 327 327 326 326 326 326 326 327 327 327 327 328 328 329 330 331 331 331 332 332 332 332 332 332 332 332 332 332 332 332 332 332 332 331 331 331 332 331 331 331 330 330 330 329 329 329 329 330 331 332 332 333 334 334 334 334 334 333 332 332 331 332 332
321 321 322 323 324 325 325 326 326 326 326 326 325 325 325 325 326 326 327 328 328 328 327 327 326 326 326 326 326 326 327 327 327 328 328 329 329 330 331 331 332 332 332 332 332 332 332 332 332 332 332 332 332 332 332 332 332 332 332 332 332 332 331 331 331 330 330 330 331 331 332 333 334 335 335 336 336 335 335 334 334 333 332 331 332 332
321 322 323 324 325 325 326 326 326 326 326 326 325 325 325 325 326 327 328 328 328 327 327 326 325 325 325 326 326 326 327 327 328 328 329 329 330 330 331 332 332 332 333 332 332 332 332 332 332 333 333 333 333 333 333 333 333 333 333 333 333 332 332 331 331 331 331 332 332 333 334 335 336 337 338 338 338 337 336 335 334 333 332 331 331 332
321 322 323 324 325 326 326 327 327 327 327 326 325 325 325 325 326 327 327 327 327 327 326 325 325 325 325 326 326 326 327 327 328 328 329 329 330 330 331 332 332 333 333 333 333 333 333 333 333 333 333 333 334 334 334 334 334 334 334 333 333 333 332 332 332 332 333 333 334 335 337 338 339 340 340 340 340 339 338 337 335 333 332 330 330 330
321 322 323 324 325 326 327 327 328 328 327 326 325 325 325 325 326 326 326 326 326 326 325 325 325 325 325 326 326 326 327 328 328 329 329 330 330 331 332 332 332 333 333 333 333 333 334 333 333 334 334 334 334 334 334 334 334 334 334 334 334 333 333 333 333 334 334 335 336 338 339 340 341 342 342 342 342 341 340 338 336 334 332 329 329 329
321 322 323 325 326 327 328 329 329 328 327 326 325 325 325 325 325 326 326 326 326 325 325 324 325 325 325 326 326 327 327 328 329 329 330 330 331 331 332 332 333 333 333 334 334 334 334 334 334 334 334 334 335 335 335 335 335 335 335 334 334 334 334 334 334 335 336 337 338 340 342 342 343 344 344 344 344 343 342 340 338 335 332 329 327 327
322 323 325 326 328 329 329 330 329 328 327 326 325 325 325 325 325 325 325 325 325 324 324 324 324 325 325 326 326 327 327 328 329 330 330 331 331 332 332 332 333 333 334 334 334 334 335 335 335 335 335 335 335 335 336 336 335 335 335 335 335 335 335 335 336 336 338 339 341 342 343 344 345 345 345 345 345 345 343 342 339 336 333 329 327 326
323 325 326 328 329 330 330 330 329 328 327 326 325 325 325 325 325 325 325 325 324 324 324 324 324 325 325 326 326 327 328 329 329 330 331 331 332 332 332 333 333 334 334 335 335 335 335 335 335 335 335 335 336 336 336 336 336 336 336 336 336 336 336 337 337 338 339 341 343 344 345 345 346 346 346 346 346 346 345 343 341 338 334 331 328 326
325 327 329 330 331 331 331 330 329 328 327 326 325 325 325 325 325 325 324 324 323 323 323 324 324 325 326 326 327 328 328 329 330 331 331 332 332 332 333 333 334 334 335 335 336 336 336 336 336 336 336 336 337 337 337 337 337 337 337 337 337 337 338 338 339 340 342 343 345 346 346 346 346 346 346 346 346 346 346 345 343 340 337 333 330 328
327 329 331 332 332 332 331 330 329 328 327 326 325 325 325 325 324 324 323 322 322 322 323 324 324 325 326 327 328 328 329 330 331 331 332 332 333 333 333 334 335 335 335 336 336 336 336 336 336 336 337 337 337 337 337 337 337 338 338 338 338 339 339 340 341 342 343 345 346 347 347 347 347 346 346 346 346 347 347 346 344 342 339 336 333 331
330 331 332 332 332 331 331 330 329 327 326 326 325 324 324 324 323 322 322 322 322 322 323 324 325 326 327 328 328 329 330 331 331 332 332 333 333 334 334 335 335 336 336 336 336 337 337 337 337 337 337 338 338 338 338 338 338 338 339 339 340 340 341 342 343 344 345 346 347 347 347 347 347 346 346 346 346 347 347 347 346 345 343 340 337 335
331 332 332 332 331 331 330 329 328 327 326 325 324 324 323 323 322 322 321 321 322 322 323 324 325 327 328 329 329 330 330 331 332 332 333 333 334 334 335 335 336 336 336 336 336 336 337 337 338 338 339 339 339 339 339 339 339 339 340 340 341 342 342 343 344 345 346 346 347 347 347 347 347 346 346 346 346 347 347 348 348 348 346 345 343 341
332 332 332 332 331 330 329 328 326 325 325 324 323 323 322 322 321 321 321 321 322 323 324 325 326 327 328 329 330 330 331 332 332 333 333 334 334 335 335 335 336 336 336 336 336 337 337 338 338 339 339 339 339 340 340 340 340 340 341 342 342 343 344 345 345 345 345 346 346 346 347 347 347 346 346 345 345 346 347 349 350 351 351 350 349 348
332 332 332 331 330 329 327 326 325 324 324 323 323 322 322 321 321 321 321 322 322 323 325 326 327 328 329 330 330 331 332 332 333 333 334 334 335 335 335 336 336 336 336 336 337 337 338 338 339 339 340 340 340 340 341 341 341 341 342 343 344 344 345 346 346 345 345 344 345 345 346 347 347 346 346 345 345 346 347 349 350 352 354 354 354 354
332 331 330 329 328 327 325 324 324 323 323 323 322 321 321 320 320 321 321 322 323 324 326 327 328 329 329 330 331 332 332 333 333 334 334 334 335 335 336 336 336 336 336 337 337 338 338 339 340 340 340 341 341 341 342 342 342 342 343 343 344 345 345 345 345 344 343 343 344 345 346 347 347 346 346 345 345 346 347 348 350 353 355 357 357 358
330 329 328 327 326 325 324 323 323 322 322 322 321 321 320 320 320 321 322 323 324 325 327 328 328 329 330 331 331 332 333 333 334 334 334 335 335 335 336 336 336 336 336 337 338 339 339 340 341 341 341 341 342 342 342 343 343 343 343 344 345 346 346 345 344 343 342 343 344 345 346 347 347 347 346 346 346 346 347 348 350 353 355 358 359 359
328 327 326 324 323 323 322 322 322 322 322 321 321 320 320 320 320 321 322 323 325 326 327 328 329 329 330 331 332 333 334 334 334 334 335 335 335 336 336 336 336 336 337 338 339 340 340 341 342 342 342 342 342 343 343 343 344 344 344 345 345 345 345 344 343 342 342 343 344 345 346 347 347 347 347 347 347 347 347 349 350 353 355 358 360 0
324 323 323 322 321 321 321 321 322 322 321 321 320 320 320 320 321 322 323 324 326 327 328 329 329 330 331 332 333 334 334 334 334 335 335 335 335 336 336 336 336 337 338 338 340 341 341 342 342 342 343 343 343 343 343 344 344 345 345 345 345 345 344 343 342 342 342 343 344 346 347 347 347 347 348 348 348 348 349 350 351 354 356 359 1 2
321 320 320 320 320 320 321 321 321 321 321 320 320 320 320 320 321 322 324 325 327 328 328 329 330 331 331 333 333 334 334 334 335 335 335 335 335 335 336 336 337 337 338 339 340 341 342 343 343 343 343 344 344 344 344 344 344 345 345 346 345 345 344 343 343 342 343 344 345 346 347 347 348 348 349 350 350 351 351 352 354 356 359 1 3 5
318 318 318 319 320 321 321 322 322 321 320 320 319 319 320 320 321 323 324 326 327 328 329 330 330 331 332 333 334 334 334 335 335 335 335 335 335 335 336 336 337 338 339 341 341 342 343 343 343 344 344 344 344 344 344 344 344 344 345 346 346 346 345 344 344 343 344 345 346 347 348 348 349 349 351 352 352 353 354 355 357 359 2 4 6 7
317 317 318 319 320 322 323 323 322 321 320 319 319 319 320 321 322 323 325 326 327 328 329 330 331 332 333 334 334 334 334 335 335 335 335 335 335 335 336 336 337 339 340 341 342 343 343 344 344 344 344 345 345 345 344 344 344 344 345 346 347 347 346 345 345 345 345 346 347 348 348 349 350 351 352 354 355 355 357 358 0 2 5 7 9 10
317 317 319 320 322 323 324 323 322 321 319 319 319 319 320 321 323 324 326 327 328 328 329 331 332 333 333 334 334 334 334 335 335 335 336 336 335 336 336 337 338 339 341 342 343 344 344 344 344 345 345 345 345 345 344 343 343 344 345 347 348 349 349 348 347 347 347 348 348 349 350 350 351 353 354 356 357 358 360 2 4 6 9 10 12 13
318 319 320 322 323 323 323 322 321 320 319 318 319 320 321 322 324 325 326 327 328 329 330 331 332 333 334 334 334 334 335 335 335 336 336 336 336 336 337 337 339 340 341 343 344 344 345 345 345 345 345 345 345 345 344 344 343 344 346 348 349 351 351 350 350 349 350 350 350 350 351 352 353 355 356 357 359 1 3 5 8 10 12 14 14 15
319 320 321 322 322 322 322 321 320 319 318 318 319 320 322 323 325 326 327 328 329 330 331 332 333 333 334 334 334 335 335 335 336 336 336 336 336 337 337 338 339 341 342 343 344 345 345 346 346 346 345 345 345 344 344 344 344 345 346 348 350 351 352 352 352 351 351 351 351 352 352 353 355 356 358 360 1 3 6 8 11 14 15 16 17 17
320 320 321 321 321 321 321 320 319 318 318 319 320 321 323 324 326 327 328 328 329 330 332 332 333 334 334 334 335 335 335 336 336 336 336 336 337 337 338 339 340 341 342 343 344 345 346 346 346 346 346 345 345 345 344 345 345 346 347 348 350 351 352 352 352 352 352 352 352 353 354 355 357 358 360 2 4 7 9 12 14 16 17 18 18 20
320 320 320 320 320 320 319 319 318 318 319 320 321 323 324 325 326 327 328 329 330 331 332 333 334 334 334 335 335 336 336 336 336 336 337 337 338 338 339 340 341 342 343 344 345 345 346 346 346 346 346 346 346 345 345 345 346 346 347 348 349 350 351 351 351 351 352 352 353 354 356 357 358 0 2 5 8 11 13 15 17 18 19 19 21 23
320 320 320 320 320 320 319 318 318 318 320 321 322 324 325 326 327 328 329 330 331 332 333 333 334 334 334 335 335 336 336 336 337 337 337 338 339 339 340 341 342 343 343 344 345 345 346 346 347 347 347 347 347 347 346 346 347 347 347 347 348 348 349 349 350 350 351 352 354 356 358 359 1 3 5 9 12 15 17 18 19 20 20 21 23 26
321 321 321 321 320 319 319 318 318 319 320 322 323 324 326 327 328 329 330 330 331 332 333 334 334 335 335 335 336 336 337 337 337 337 338 339 339 340 341 342 343 344 344 344 345 345 346 346 347 347 347 348 349 349 348 348 348 348 347 347 347 347 347 348 349 350 351 353 355 357 360 1 3 6 10 13 17 19 20 21 21 21 22 23 26 29
322 322 322 321 321 320 319 319 319 320 321 322 324 325 327 327 328 329 330 331 332 333 334 334 335 335 336 336 336 337 337 337 338 338 338 339 340 341 342 343 344 344 345 345 345 345 346 346 347 347 348 349 350 351 351 350 349 348 348 347 347 347 347 348 349 350 352 354 357 360 2 5 7 11 14 18 21 22 23 22 22 23 23 25 28 32